Lake Greeson Weather Center

Moon Phase Calendar



Lake Greeson Water Level
Online Cameras

 


      

Current Conditions in Murfreesboro
9/26/2021 5:16:18 AM

53°F
Feels Like 52
Clear
Humidity
67%
Pressure
30.09"
Wind
1.3 mph (NE)
Dew Point
43°F
UV Index
0/10 (Low)
Visibility
6 mi

Hourly Forecast

Date & Time Sun, Sep 26
5:00 AM
Sun, Sep 26
6:00 AM
Sun, Sep 26
7:00 AM
Sun, Sep 26
8:00 AM
Sun, Sep 26
9:00 AM
Sun, Sep 26
10:00 AM
Sun, Sep 26
11:00 AM
Sun, Sep 26
12:00 PM
Sun, Sep 26
1:00 PM
Sun, Sep 26
2:00 PM
Sun, Sep 26
3:00 PM
Sun, Sep 26
4:00 PM
Sun, Sep 26
5:00 PM
Sun, Sep 26
6:00 PM
Sun, Sep 26
7:00 PM
Sun, Sep 26
8:00 PM
Sun, Sep 26
9:00 PM
Sun, Sep 26
10:00 PM
Sun, Sep 26
11:00 PM
Mon, Sep 27
12:00 AM
Mon, Sep 27
1:00 AM
Mon, Sep 27
2:00 AM
Mon, Sep 27
3:00 AM
Mon, Sep 27
4:00 AM
Mon, Sep 27
5:00 AM
Mon, Sep 27
6:00 AM
Mon, Sep 27
7:00 AM
Mon, Sep 27
8:00 AM
Mon, Sep 27
9:00 AM
Mon, Sep 27
10:00 AM
Mon, Sep 27
11:00 AM
Mon, Sep 27
12:00 PM
Mon, Sep 27
1:00 PM
Mon, Sep 27
2:00 PM
Mon, Sep 27
3:00 PM
Mon, Sep 27
4:00 PM
Mon, Sep 27
5:00 PM
Mon, Sep 27
6:00 PM
Mon, Sep 27
7:00 PM
Mon, Sep 27
8:00 PM
Mon, Sep 27
9:00 PM
Mon, Sep 27
10:00 PM
Mon, Sep 27
11:00 PM
Tue, Sep 28
12:00 AM
Tue, Sep 28
1:00 AM
Tue, Sep 28
2:00 AM
Tue, Sep 28
3:00 AM
Tue, Sep 28
4:00 AM
Condition
Clear

Clear

Clear

Clear

Clear

Clear

Clear

Clear

Clear

Clear

Clear

Clear

Clear

Clear

Clear

Clear

Clouds

Clouds

Clouds

Clouds

Clouds

Clouds

Clouds

Clouds

Clouds

Clouds

Clouds

Clouds

Clouds

Clouds

Clouds

Clouds

Clouds

Clear

Clouds

Clouds

Clouds

Clouds

Clouds

Clouds

Clouds

Clouds

Clouds

Clouds

Clouds

Clouds

Clouds

Clouds
Temperature 53°F55°F55°F58°F65°F73°F78°F82°F85°F87°F88°F88°F87°F83°F75°F72°F70°F69°F67°F66°F65°F64°F63°F62°F61°F61°F61°F63°F69°F75°F79°F82°F85°F87°F88°F88°F87°F83°F76°F73°F72°F70°F69°F69°F69°F68°F68°F67°F
Feels Like 52°F53°F54°F57°F64°F72°F77°F81°F83°F84°F85°F85°F85°F83°F74°F71°F69°F68°F67°F65°F64°F63°F62°F61°F61°F60°F60°F63°F69°F74°F79°F82°F84°F85°F86°F86°F85°F83°F75°F73°F71°F70°F69°F70°F70°F69°F68°F68°F
Cloudiness 0%0%0%3%4%6%6%5%4%0%0%0%0%0%0%6%17%43%57%66%72%98%96%96%97%96%95%76%45%33%33%32%29%7%26%38%54%49%58%100%100%100%96%97%97%100%100%95%
Visibility 6 mi6 mi6 mi6 mi6 mi6 mi6 mi6 mi6 mi6 mi6 mi6 mi6 mi6 mi6 mi6 mi6 mi6 mi6 mi6 mi6 mi6 mi6 mi6 mi6 mi6 mi6 mi6 mi6 mi6 mi6 mi6 mi6 mi6 mi6 mi6 mi6 mi6 mi6 mi6 mi6 mi6 mi6 mi6 mi6 mi6 mi6 mi6 mi
Precipitation 0%0%0%0%0%0%0%0%0%0%0%0%0%0%0%0%0%0%0%0%0%0%0%0%0%0%0%0%0%0%0%0%0%0%0%0%0%0%0%0%0%0%0%0%0%2%6%11%
Humidity 67%68%69%68%58%48%42%37%32%29%28%27%28%41%49%53%56%58%61%64%66%69%71%73%75%76%78%76%66%59%51%44%38%34%32%33%35%41%52%54%58%64%73%79%82%87%90%93%
Dew Point 43°F44°F45°F48°F50°F52°F53°F52°F52°F51°F50°F50°F51°F57°F54°F53°F53°F53°F53°F53°F53°F53°F53°F53°F53°F53°F53°F55°F57°F59°F59°F58°F56°F55°F55°F55°F56°F58°F57°F55°F55°F57°F60°F62°F63°F64°F64°F65°F
Pressure 30.09"30.09"30.09"30.12"30.12"30.12"30.12"30.09"30.06"30.03"30"29.97"29.97"29.97"29.97"30"30"30.03"30.03"30.03"30.03"30.03"30.03"30.03"30.03"30.03"30.03"30.06"30.06"30.06"30.06"30.03"30"29.97"29.94"29.91"29.91"29.91"29.91"29.94"29.94"29.94"29.94"29.94"29.94"29.97"29.97"29.94"
Wind Speed 1.3 mph2 mph1.3 mph1.1 mph2 mph3.5 mph4.7 mph5.4 mph5.6 mph5.8 mph5.5 mph5.5 mph5.5 mph3 mph2.7 mph3.5 mph3.4 mph3.4 mph3.1 mph2.8 mph2.5 mph2.4 mph2.8 mph2.6 mph3 mph3 mph3 mph2.7 mph4.3 mph5.9 mph6.2 mph6.8 mph6.9 mph7.1 mph7.4 mph7.9 mph7.9 mph5.6 mph3.6 mph3.6 mph3.6 mph3.3 mph2.2 mph1.5 mph2.9 mph2.1 mph1.8 mph1.6 mph
Wind
Direction
43°
NE
52°
NE
65°
ENE
86°
E
148°
SSE
183°
S
200°
SSW
207°
SSW
208°
SSW
208°
SSW
205°
SSW
203°
SSW
201°
SSW
193°
SSW
167°
SSE
156°
SSE
161°
SSE
166°
SSE
166°
SSE
175°
S
170°
S
187°
S
198°
SSW
202°
SSW
218°
SW
233°
SW
231°
SW
230°
SW
220°
SW
212°
SSW
203°
SSW
195°
SSW
188°
S
181°
S
177°
S
172°
S
172°
S
164°
SSE
140°
SE
126°
SE
144°
SE
143°
SE
145°
SE
139°
SE
132°
SE
119°
ESE
129°
SE
119°
ESE

Daily Forecast

Date High Low Precip. Humidity
Today
Sep 26

Clear
88 °F
53 °F
0%
32%
Monday
Sep 27

Clouds
88 °F
61 °F
0%
38%
Tuesday
Sep 28

Rain
85 °F
67 °F
60%
58%
Wednesday
Sep 29

Rain
79 °F
69 °F
100%
76%
Thursday
Sep 30

Rain
79 °F
67 °F
96%
81%
Friday
Oct 1

Rain
81 °F
68 °F
100%
78%
Saturday
Oct 2

Rain
75 °F
68 °F
87%
83%
Sunday
Oct 3

Rain
79 °F
68 °F
100%
72%
Monday
Oct 4

Rain
74 °F
63 °F
89%
60%
Tuesday
Oct 5

Clouds
78 °F
61 °F
0%
51%
Wednesday
Oct 6

Clear
79 °F
57 °F
0%
34%
Thursday
Oct 7

Clouds
78 °F
55 °F
0%
33%
Friday
Oct 8

Clear
79 °F
54 °F
0%
33%
Saturday
Oct 9

Clear
80 °F
56 °F
0%
32%
Sunday
Oct 10

Clouds
78 °F
56 °F
0%
41%
Monday
Oct 11

Clouds
80 °F
57 °F
0%
38%

Temperature 8-14 Day Outlook



Precipitation 8-14 Day Outlook




Quick Links
Lake Greeson News
Lake Greeson Photos
Lake Greeson Videos




About Us
Contact Us
Site Map
Search Site
Advertise With Us
   
Greeson.LakesOnline.com
THE LAKE GREESON WEBSITE

Copyright 2021, Lakes Online
Privacy    |    Legal